This demonstration page uses our WeatherBlox Daily Observations layout. Learn more.

Left ArrowRight Arrow

39.92423, -83.80882

Hourly Observations for January 12, 2018

Temp ( °F °C ) Dew Point ( °F °C ) Humidity (%) Winds ( mph kmh ) Pressure ( in mb ) Visibility ( mi km ) Precip ( " mm )
12:25 am 00:25 Cloudy 55 13 54 12 94 94 S 8 13 29.77 1008 10 16 N/A
12:56 am 00:56 Cloudy 56 13.3 55 12.8 97 97 S 9 15 29.75 1007 10 16 N/A
1:14 am 01:14 Cloudy 55 13 55 13 100 100 S 8 13 29.74 1007 10 16 N/A
1:26 am 01:26 Cloudy 55 13 55 13 100 100 S 9 15 29.74 1007 10 16 N/A
1:34 am 01:34 Cloudy 55 13 55 13 100 100 S 8 13 29.71 1006 10 16 N/A
1:56 am 01:56 Cloudy 56 13.3 55 12.8 97 97 S 9 15 29.72 1006 10 16 N/A
2:03 am 02:03 Cloudy 55 13 54 12 94 94 S 9 15 29.71 1006 10 16 N/A
2:47 am 02:47 Cloudy 55 13 54 12 94 94 S 9 15 29.68 1005 10 16 N/A
2:56 am 02:56 Cloudy 55 12.8 54 12.2 96 96 S 8 13 29.69 1006 10 16 N/A
3:56 am 03:56 Cloudy with Light Rain 56 13.3 54 12.2 93 93 S 8 13 29.67 1005 10 16 N/A
4:33 am 04:33 Cloudy 55 13 54 12 94 94 S 9 15 29.65 1004 10 16 N/A
4:56 am 04:56 Cloudy with Light Rain 55 12.8 54 12.2 96 96 S 7 11 29.65 1004 10 16 N/A
5:24 am 05:24 Cloudy with Rain 55 13 54 12 94 94 SW 7 11 29.65 1004 6 10 0.03 0.76
5:45 am 05:45 Cloudy with Heavy Rain 55 13 54 12 94 94 WNW 17 28 29.65 1004 4 6 0.16 4.06
5:56 am 05:56 Cloudy with Rain 51 10.6 50 10 96 96 NNW 15 24 29.67 1005 7 11 0.18 4.57
6:03 am 06:03 Cloudy with Light Rain 50 10 48 9 94 94 NW 14 22 29.65 1004 10 16 N/A
6:56 am 06:56 Cloudy with Rain 45 7.2 44 6.7 97 97 NW 15 24 29.69 1005 5 8 0.04 1.02
7:10 am 07:10 Cloudy with Light Rain 43 6 43 6 100 100 NW 15 24 29.71 1006 6 10 0.02 0.51
7:56 am 07:56 Cloudy with Rain 39 3.9 38 3.3 96 96 NW 23 37 29.73 1007 6 10 0.09 2.29
8:56 am 08:56 Cloudy with Light Rain 35 1.7 34 1.1 96 96 NNW 18 30 29.76 1008 6 10 0.03 0.76
9:45 am 09:45 Cloudy with Light Snow 34 1 32 undefined 93 93 NNW 16 26 29.80 1009 2 3 0.04 1.02
9:56 am 09:56 Cloudy with Light Snow 34 1.1 32 undefined 92 92 NNW 16 26 29.79 1009 2 3 0.05 1.27
10:04 am 10:04 Cloudy with Light Snow 34 1 32 undefined 93 93 NNW 17 28 29.80 1009 2 3 0.01 0.25
10:13 am 10:13 Cloudy with Light Rain 34 1 32 undefined 93 93 NNW 14 22 29.83 1010 3 4 0.01 0.25
10:28 am 10:28 Windy with Snow Likely 34 1 32 undefined 93 93 NNW 21 33 29.80 1009 2 2 0.03 0.76
10:56 am 10:56 Cloudy with Light Snow 34 1.1 32 undefined 92 92 NNW 17 28 29.82 1010 2 3 0.08 2.03
11:16 am 11:16 Cloudy with Light Wintry Mix 34 1 32 undefined 93 93 NNW 20 31 29.83 1010 4 6 0.02 0.51
11:56 am 11:56 Cloudy with Light Rain 35 1.7 33 0.6 93 93 N 14 22 29.79 1009 10 16 0.05 1.27
12:56 pm 12:56 Cloudy with Light Rain 35 1.7 33 0.6 93 93 N 16 26 29.78 1008 10 16 N/A
1:28 pm 13:28 Cloudy with Light Rain 34 1 30 -1 87 87 N 21 33 29.80 1009 4 6 0.01 0.25
1:46 pm 13:46 Cloudy with Light Freezing Rain 32 undefined 30 -1 93 93 N 24 39 29.80 1009 8 13 0.01 0.25
1:56 pm 13:56 Cloudy with Light Freezing Rain 32 undefined 30 -1.1 92 92 N 21 33 29.77 1008 9 14 0.01 0.25
2:31 pm 14:31 Cloudy with Light Snow 30 -1 28 -2 93 93 N 16 26 29.85 1011 5 8 N/A
2:54 pm 14:54 Windy with Snow Likely 30 -1 28 -2 93 93 N 24 39 29.85 1011 3 4 0.01 0.25
2:56 pm 14:56 Windy with Snow Likely 30 -1.1 29 -1.7 96 96 N 22 35 29.81 1010 2 3 0.01 0.25
3:05 pm 15:05 Windy with Snow Likely 30 -1 28 -2 93 93 N 20 31 29.85 1011 2 2 0.02 0.51
3:31 pm 15:31 Cloudy with Light Snow 28 -2 27 -3 93 93 N 16 26 29.88 1012 3 5 0.04 1.02
3:43 pm 15:43 Windy with Snow Likely 28 -2 27 -3 93 93 N 22 35 29.85 1011 2 3 0.04 1.02
3:56 pm 15:56 Cloudy with Light Snow 28 -2.2 26 -3.3 92 92 N 18 30 29.84 1011 2 2 0.04 1.02
4:46 pm 16:46 Windy with Snow Likely 27 -3 25 -4 93 93 NNE 23 37 29.88 1012 2 3 0.02 0.51
4:56 pm 16:56 Cloudy with Light Snow 27 -2.8 25 -3.9 92 92 NNE 17 28 29.84 1011 3 4 0.02 0.51
5:10 pm 17:10 Windy with Snow Likely 27 -3 25 -4 93 93 N 22 35 29.88 1012 3 5 N/A
5:56 pm 17:56 Windy with Snow Likely 25 -3.9 23 -5 92 92 N 22 35 29.86 1011 3 5 N/A
6:21 pm 18:21 Cloudy with Light Snow 25 -4 21 -6 86 86 N 18 30 29.94 1014 2 3 N/A
6:35 pm 18:35 Windy with Snow Likely 23 -5 21 -6 93 93 N 21 33 30.00 1016 1 2 N/A
6:46 pm 18:46 Windy with Snow Likely 23 -5 21 -6 93 93 N 26 43 29.97 1015 1 1 N/A
6:56 pm 18:56 Cloudy with Snow 23 -5 21 -6.1 92 92 N 18 30 29.93 1014 1 1 N/A
7:09 pm 19:09 Windy with Snow Likely 21 -6 21 -6 100 100 N 24 39 29.97 1015 1 1 N/A
7:25 pm 19:25 Cloudy with Snow 21 -6 19 -7 93 93 N 21 33 30.00 1016 1 1 N/A
7:38 pm 19:38 Windy with Snow Likely 21 -6 19 -7 93 93 N 23 37 30.00 1016 1 2 N/A
7:47 pm 19:47 Windy with Snow Likely 21 -6 19 -7 93 93 N 22 35 30.00 1016 2 2 N/A
7:56 pm 19:56 Cloudy with Light Snow 21 -6.1 19 -7.2 92 92 N 17 28 29.96 1015 2 2 N/A
8:03 pm 20:03 Windy with Snow Likely 21 -6 19 -7 93 93 N 23 37 30.03 1017 1 2 N/A
8:30 pm 20:30 Windy with Snow Likely 19 -7 18 -8 93 93 N 20 31 30.06 1018 1 2 N/A
8:46 pm 20:46 Windy with Snow Likely 19 -7 18 -8 93 93 N 25 41 30.06 1018 1 1 N/A
8:56 pm 20:56 Windy with Snow Likely 19 -7.2 17 -8.3 92 92 N 23 37 30.01 1016 1 1 N/A
9:34 pm 21:34 Cloudy with Light Snow 18 -8 16 -9 93 93 NNW 16 26 30.12 1020 1 2 N/A
9:42 pm 21:42 Windy with Snow Likely 18 -8 16 -9 93 93 N 23 37 30.09 1019 1 2 N/A
9:49 pm 21:49 Windy with Snow Likely 18 -8 16 -9 93 93 N 21 33 30.09 1019 1 2 N/A
9:56 pm 21:56 Windy with Snow Likely 18 -7.8 15 -9.4 88 88 N 24 39 30.05 1018 1 2 N/A
10:04 pm 22:04 Windy with Snow Likely 18 -8 16 -9 93 93 N 22 35 30.09 1019 1 2 N/A
10:21 pm 22:21 Windy with Snow Likely 18 -8 16 -9 93 93 N 23 37 30.09 1019 1 1 N/A
10:35 pm 22:35 Windy with Snow Likely 18 -8 14 -10 86 86 N 22 35 30.06 1018 1 2 N/A
10:46 pm 22:46 Windy with Snow Likely 18 -8 14 -10 86 86 N 21 33 30.06 1018 1 2 N/A
10:56 pm 22:56 Windy with Snow Likely 17 -8.3 14 -10 88 88 N 21 33 30.05 1018 1 2 N/A
11:37 pm 23:37 Windy with Snow Likely 16 -9 14 -10 93 93 NNW 21 33 30.15 1021 2 2 N/A
11:56 pm 23:56 Cloudy with Light Snow 16 -8.9 13 -10.6 88 88 NNW 16 26 30.12 1020 2 2 N/A

Powered by AerisWeather